"Pseudo-MPEC" for C0T4F91

Created 2019 Dec 5 0:07:05 UT using Find_Orb

Click here for an explanation of pseudo-MPECs

 
 Astrometry: 
     C0T4F91  C2019 12 02.34134 09 24 59.32 +66 19 56.2    ~C29M       VNEOCP703
     C0T4F91  C2019 12 02.34676 09 25 00.42 +66 20 24.1    ~C29M 19.6 GVNEOCP703
     C0T4F91  C2019 12 02.35218 09 25 01.25 +66 20 51.9    ~C29M 19.5 GVNEOCP703
     C0T4F91  C2019 12 02.35759 09 25 02.29 +66 21 17.1    ~C29M 19.4 GVNEOCP703
     C0T4F91  C2019 12 02.42932 09 25 13.92 +66 27 04.2    ~C2Ab 19.4 GVNEOCPI52
     C0T4F91  C2019 12 02.42974 09 25 13.97 +66 27 06.1    ~C2Ab 19.5 GVNEOCPI52
     C0T4F91  C2019 12 02.43241 09 25 14.38 +66 27 18.9    ~C2Ab 19.4 GVNEOCPI52
     C0T4F91  C2019 12 02.43379 09 25 14.62 +66 27 25.6    ~C2Ab 19.3 GVNEOCPI52
     C0T4F91  C2019 12 02.51326 09 25 27.03 +66 33 42.7    ~C2Cb 19.7 GVNEOCPI52
     C0T4F91  C2019 12 02.51581 09 25 27.44 +66 33 54.5    ~C2Cb 20.1 GVNEOCPI52
     C0T4F91  C2019 12 02.51623 09 25 27.49 +66 33 56.6    ~C2Cb 19.8 GVNEOCPI52
     C0T4F91 KC2019 12 026)sisN's4q-@/Fv[,/0uVg31TcE3uK81.e[9[T(SaHbayCmb-i?tK88
     C0T4F91 KC2019 12 02V*)?Pp:U.%csZDf;xnn9q0p.GX;jQjG\sffi[AQ`*$t(j69^s0IsK88
     C0T4F91 KC2019 12 02Wt8reD2ixl2Y3=tqAnyf^Y%wR5F%o#yaOd+lv15OWH.De\;aQnM5K88
     C0T4F91 pC2019 12 03M,fYA28j58QeV]1-n\DJB'@)240!hO7h'6ZXU6o@CtYDw$n?_4HqL01
     C0T4F91 pC2019 12 03#XrsN`He;6lQp$`atZ*8T\+v*J[sL,v^$o2?qwZ.CeX%?v9$hmB$L01
     C0T4F91 KC2019 12 03yb#S[P_W4=G6xxJ`Birxnlt-pUlt.d\1Astrometry=;VOPM0QbOK88
     C0T4F91 KC2019 12 03hHKXtIfwh\mw(g_lJpch2sqG'meiB-kH?fqRIhi?q*$.N[v:UGVVK88
     C0T4F91 KC2019 12 03OIurF(dHP?\redacted;BD%_cwCAoQoP'0_N@o#jjvjMclick:8)K88
     C0T4F91  C2019 12 03.96730 09 29 55.47 +68 22 37.4    ~C4AM 20.3 VVNEOCP033
     C0T4F91  C2019 12 03.96809 09 29 55.65 +68 22 40.9    ~C4AM 20.5 VVNEOCP033
     C0T4F91 KC2019 12 03j1+TO,9l]63,g(6nlvB3EW6P!=j9F4$Q:XZKL]a9C(uZvhV?U!s2A17
     C0T4F91  C2019 12 03.96889 09 29 55.80 +68 22 44.4    ~C4AM 20.5 VVNEOCP033
     C0T4F91 KC2019 12 03kI3bm.'*9u=MvBS3^lWfh7c0G\e/wH2d0%js,N2'E:Whmk:l(9/lA17
     C0T4F91 KC2019 12 03`EWT.dfruEnQjZY6tjXh[^(]*dP:Vj9g-HuqhmF4c:eSuxCIiU7$K61
     C0T4F91 KC2019 12 039sD]l8m]QZDyU;BbVeVus+tpU=LFue@7cW*!KA-_e`oZ(qB87S4dK61
     C0T4F91 KC2019 12 03^bZ9Y,`TLZl57PkKx6^qpABmY3mw^/XRhlCjLiZ=?KZj#6Z;a*\]K61
     C0T4F91 KC2019 12 03QpqQ=H6MZB;y4^C:M#WFNkj+[$Gv/)Z`S+8q-(DhJ_g^x0R%h/pUA17
     C0T4F91 KC2019 12 03p6uIg^,GD`,6Wm![B:Zlg2rUvRKQH'AwP.57/4woJ.cCcDe#!FJhK61
     C0T4F91 KC2019 12 042Bw.t9v*[N4CcKSherewHHVeEsddwedG-wC*_q`yGD4uYW9*06-3K61
     C0T4F91 KC2019 12 048=x77bhMfi4=2#]Y*#j6G?AX/(kyC96,oX3\GHy3@Vpy2!#[9JT4K61
     C0T4F91 KC2019 12 04\=pM?pJ3,V(?jdf8XNpXaK5=`(gnqI2gPQ7for!x1G=!e)m])L2T587
     C0T4F91 KC2019 12 04^MYMj@/X4Z[f,9AJ7RqT.]^UtA',O?Y/FJ)0\qjqrl7$,X(weRM7587
     C0T4F91 KC2019 12 04j(1edr;]Q$*U-:kX^=*+Tb7gkh,k@Y\damP%ekcqoGV;r4y5s*i[587
     C0T4F91 KC2019 12 04u0Ldq^uSI7!yp@jY79oAj]u%V%HlU3?O6W%CpD%feIFVNe#ww3V%K51
     C0T4F91 KC2019 12 0413D*4bAWB7$A%$QB^-`xd7PxH*#3q!3iZUGVF#X$x8\OZA/A[.,MK51
     C0T4F91 KC2019 12 048^uB;.mq`:5-q\d):bAwlexplanationUr!wSc]UuUw6dD-DKn_`K51
     C0T4F91  C2019 12 04.88602 09 32 39.80 +69 26 52.7    ~C4Lb 21.1 VVNEOCP033
     C0T4F91  C2019 12 04.88677 09 32 39.92 +69 26 55.6    ~C4Lb 21.6 VVNEOCP033
     C0T4F91  C2019 12 04.88749 09 32 40.09 +69 26 59.1    ~C4Lb 22.2 VVNEOCP033
     C0T4F91 KC2019 12 04UVvt976[h(6`^gmG$N#y)T6Gywl$EQd!a;u,15tnL4Rm'yrUVK9eK88
     C0T4F91 KC2019 12 04;`9,B^]`9D!hy-T4[H:oTbw-Z,d_y)!:G:FiR*Ol(Q4[8hJtjdiDK88
     C0T4F91 KC2019 12 04L@R`'pFZy!tF;AiG%maI(CpG6a1Y_8T7R[-R;,Sj,H1upj:cQ=ENK88
     C0T4F91  C2019 12 04YuIWa)S].+r;8gEW.nB*2x[d;'8Owhx.O'$(2gj(%X*K58sXv7jN246
     C0T4F91  C2019 12 04L.jS!s*iq8S=FKO3Wmt;rc.ku*\@Y.N#OPFG_6TV6+$B=qXCYf4U246
     C0T4F91  C2019 12 04KJu^X#;NSkOKlhGDR'OVIF'?YJxy8-Jb(bu,WI9xofZpd3w:C:K?246
     C0T4F91  C2019 12 04sOqsh%wP-:KmqO`t'%iH9926$6AO/nXAF+?wmY:P+U$g4G5M`!.P246
     C0T4F91  C2019 12 04(2@#;OKs0m@o2qEMWO32TF!5Mb6[lrm3Ob!\LnVvZ'8%To.g[bg[246

Station data:
(033) Karl Schwarzschild Observatory, Tautenburg  (N50.980140 E11.711240)
   Germany. 1.3-m Schmidt.
(246) Klet Observatory-KLENOT  (N48.863293 E14.288100)  Czech Republic.
   1.06-m KLENOT telescope.
(587) Sormano  (N45.882949 E9.229180)  Italy.  Observers F. Manca, A. Testa.
   Measurer F. Manca. 0.5-m + CCD.
(703) Catalina Sky Survey  (N32.417006 W110.732640)  US/Arizona.  Observers
   T. A. Pruyne, B. M. Africano, E. J. Christensen, G. A. Farneth, D. C.
   Fuls, A. R. Gibbs, A. D. Grauer, H. Gröller, J. A. Johnson, R. A.
   Kowalski, S. M. Larson, G. J. Leonard, D. Rankin, R. L. Seaman, F. C.
   Shelly. 0.68 m Schmidt + 10K CCD.
(A17) Guidestar Observatory, Weinheim  (N49.545393 E8.681520)  Germany.
(I52) Steward Observatory, Mt. Lemmon Station  (N32.442547 W110.788920)
   US/Arizona.  Observers T. A. Pruyne, B. M. Africano, E. J. Christensen, G.
   A. Farneth, D. C. Fuls, A. R. Gibbs, A. D. Grauer, H. Gröller, J. A.
   Johnson, R. A. Kowalski, S. M. Larson, G. J. Leonard, D. Rankin, R. L.
   Seaman, F. C. Shelly. 1.0-m reflector + CCD.
(K51) Osservatorio del Celado, Castello Tesino  (N46.029412 E11.657900)
   Italy.
(K61) Rokycany Observatory  (N49.751403 E13.602600)  Czech Republic.
(K88) GINOP-KHK, Piszkéstető  (N47.917622 E19.893600)  Hungary.  Observer K.
   Sárneczky. 0.60-m Schmidt + CCD.
(L01) Višnjan Observatory, Tičan  (N45.290900 E13.749300)  Croatia.
   Observers K. Korlević, E. Pettarin. Measurer E. Pettarin. 1.0-m f/2.9
   reflector + CCD.

Orbital elements:  C0T4F91
   Perihelion 2019 Oct 20.040616 +/- 0.0996 TT =  0:58:29 (JD 2458776.540616)
Epoch 2019 Dec  4.0 TT = JDT 2458821.5   Earth MOID: 0.0613   AutoNEOCP
M  16.47285107 +/- 0.32             (J2000 ecliptic)
n   0.36639405 +/- 0.00649          Peri.  333.74521 +/- 0.07
a   1.93421063 +/- 0.0228           Node    58.44344 +/- 0.06
e   0.4740516 +/- 0.00599           Incl.   29.96074 +/- 0.18
P   2.69/982.53d           H 20.4   G  0.15   U  9.4  
q 1.01729493 +/- 0.000431    Q 2.85112633 +/- 0.0461
From 48 observations 2019 Dec. 2-4; mean residual 0".45
Residuals in arcseconds: 
191202 703  .94-  1.7-    191203 K88  .26-  .76+    191204 587  .34+  .65-    
191202 703  .16+  .27-    191203 K88  .10-  .01+    191204 587  .05-  .71-    
191202 703  .33-  1.1+    191203 K88  .52-  .40+    191204 K51  .10-  .30+    
191202 703  .47+  .09-    191203 033  .40-  .03-    191204 K51  .00   .17+    
191202 I52  .31+  .05+    191203 033  .16-  .03-    191204 K51  .21+  .29+    
191202 I52  .21+  .06-    191203 A17  .17+  .05+    191204 033  .10-  .28-    
191202 I52  .13+  .07-    191203 033  .10-  .07-    191204 033  .18-  .53-    
191202 I52  .26+  .02+    191203 A17  .08+  .11+    191204 033  .03+  .06-    
191202 I52  .26+  .10+    191203 K61  .54-  .44-    191204 K88  .06+  .64+    
191202 I52  .35+  .07-    191203 K61  .07-  .18-    191204 K88  .48-  .63+    
191202 I52  .26+  .06+    191203 K61  .11-  .32-    191204 K88  .03-  .29+    
191202 K88  .08-  .91+    191203 A17  .08-  .13+    191204 246  .23-  .91+    
191202 K88  .42-  .73+    191203 K61  .06-  .38-    191204 246  .45-  .62+    
191202 K88  .16-  .56+    191204 K61  .22+  .61-    191204 246  .61+  .83-    
191203 L01  .24-  .42+    191204 K61  .89+  .73-    191204 246  .19-  .84+    
191203 L01  .65+  .72-    191204 587  .16+  .69-    191204 246  .31+  .14+    

Ephemerides (geocentric):
Date (UTC) HH   RA              Dec         delta   r     elong  mag " sig PA
---- -- -- --  -------------   -----------  ------ ------ -----  --- ---- ---
2019 12 05 00  09 32 56.350   +69 34 49.33  .28937 1.1459 116.9 19.9 .172 118
2019 12 05 01  09 33 03.700   +69 37 38.60  .28968 1.1461 116.9 19.9 .177 118
2019 12 05 02  09 33 11.043   +69 40 27.45  .29000 1.1463 116.9 19.9 .182 118
2019 12 05 03  09 33 18.379   +69 43 15.90  .29032 1.1465 116.9 19.9 .187 118
2019 12 05 04  09 33 25.709   +69 46 03.94  .29064 1.1467 116.9 19.9 .192 118
2019 12 05 05  09 33 33.031   +69 48 51.57  .29096 1.1469 116.9 19.9 .197 118
2019 12 05 06  09 33 40.347   +69 51 38.80  .29128 1.1471 116.9 19.9 .202 118
2019 12 05 07  09 33 47.656   +69 54 25.63  .29159 1.1474 116.9 19.9 .207 118
2019 12 05 08  09 33 54.958   +69 57 12.05  .29191 1.1476 116.9 19.9 .213 118
2019 12 05 09  09 34 02.253   +69 59 58.07  .29223 1.1478 116.9 19.9 .219 118
2019 12 05 10  09 34 09.541   +70 02 43.69  .29255 1.1480 116.9 19.9 .224 118
2019 12 05 11  09 34 16.821   +70 05 28.91  .29287 1.1482 116.9 19.9 .230 117
2019 12 05 12  09 34 24.095   +70 08 13.73  .29319 1.1484 116.9 19.9 .236 117
2019 12 05 13  09 34 31.361   +70 10 58.15  .29351 1.1486 116.9 19.9 .242 117
2019 12 05 14  09 34 38.620   +70 13 42.18  .29383 1.1488 116.9 19.9 .248 117
2019 12 05 15  09 34 45.872   +70 16 25.81  .29415 1.1491 116.9 19.9 .254 117
2019 12 05 16  09 34 53.116   +70 19 09.05  .29447 1.1493 116.9 19.9 .260 117
2019 12 05 17  09 35 00.353   +70 21 51.89  .29479 1.1495 117.0 19.9 .266 117
2019 12 05 18  09 35 07.582   +70 24 34.34  .29511 1.1497 117.0 19.9 .273 116
2019 12 05 19  09 35 14.804   +70 27 16.40  .29544 1.1499 117.0 19.9 .279 116
2019 12 05 20  09 35 22.018   +70 29 58.07  .29576 1.1501 117.0 19.9 .286 116
2019 12 05 21  09 35 29.224   +70 32 39.35  .29608 1.1503 117.0 20.0 .293 116
2019 12 05 22  09 35 36.423   +70 35 20.24  .29640 1.1505 117.0 20.0 .300 116
2019 12 05 23  09 35 43.614   +70 38 00.74  .29672 1.1508 117.0 20.0 .307 116
2019 12 06 00  09 35 50.798   +70 40 40.86  .29704 1.1510 117.0 20.0 .314 115
2019 12 06 01  09 35 57.973   +70 43 20.60  .29737 1.1512 117.0 20.0 .321 115
2019 12 06 02  09 36 05.141   +70 45 59.95  .29769 1.1514 117.0 20.0 .328 115
2019 12 06 03  09 36 12.300   +70 48 38.91  .29801 1.1516 117.0 20.0 .335 115
2019 12 06 04  09 36 19.452   +70 51 17.50  .29833 1.1518 117.0 20.0 .343 115
2019 12 06 05  09 36 26.596   +70 53 55.70  .29866 1.1520 117.0 20.0 .350 114
2019 12 06 06  09 36 33.731   +70 56 33.52  .29898 1.1523 117.0 20.0 .358 114
2019 12 06 07  09 36 40.858   +70 59 10.97  .29930 1.1525 117.0 20.0 .366 114
2019 12 06 08  09 36 47.977   +71 01 48.03  .29963 1.1527 117.0 20.0 .374 114
2019 12 06 09  09 36 55.088   +71 04 24.72  .29995 1.1529 117.0 20.0 .381 114
2019 12 06 10  09 37 02.190   +71 07 01.03  .30027 1.1531 117.0 20.0 .390 114
2019 12 06 11  09 37 09.284   +71 09 36.97  .30060 1.1533 117.0 20.0 .398 113
2019 12 06 12  09 37 16.370   +71 12 12.54  .30092 1.1535 117.0 20.0 .406 113
2019 12 06 13  09 37 23.447   +71 14 47.73  .30125 1.1538 117.0 20.0 .414 113
2019 12 06 14  09 37 30.516   +71 17 22.55  .30157 1.1540 117.0 20.0 .423 113
2019 12 06 15  09 37 37.576   +71 19 56.99  .30190 1.1542 117.0 20.0 .431 113
2019 12 06 16  09 37 44.627   +71 22 31.07  .30222 1.1544 117.0 20.0 .440 113
2019 12 06 17  09 37 51.669   +71 25 04.78  .30254 1.1546 117.0 20.0 .449 112
2019 12 06 18  09 37 58.703   +71 27 38.12  .30287 1.1548 117.0 20.0 .458 112
2019 12 06 19  09 38 05.728   +71 30 11.10  .30320 1.1550 117.0 20.0 .467 112
2019 12 06 20  09 38 12.744   +71 32 43.70  .30352 1.1553 117.0 20.0 .476 112
2019 12 06 21  09 38 19.751   +71 35 15.95  .30385 1.1555 117.0 20.0 .485 112
2019 12 06 22  09 38 26.749   +71 37 47.83  .30417 1.1557 117.0 20.0 .494 112
2019 12 06 23  09 38 33.738   +71 40 19.34  .30450 1.1559 117.0 20.0 .504 111